When you browse on this site, cookies collect data to enhance your experience and personalize the content and advertising you see.
Visit our Privacy Policy to learn more. By continuing to use the site, you agree to this use of cookies and data.
  • In Austria
  • List of Countries
  • For 7 days
  • Water Temperature
  • Weather Map
  • News
  • Weather Widgets
  • user-avatar
    Login

    Hourly Weather Zakumachnoe

    Today, 18 November, Monday

    Time Temperature Precipitation Wind Pressure Humidity
    00:00 -2°C° 0 mm 4 mps 751 mmHg 81%
    01:00 -2°C° 0 mm 4 mps 751 mmHg 83%
    02:00 -2°C° 0 mm 4 mps 751 mmHg 85%
    03:00 -2°C° 0 mm 4 mps 751 mmHg 88%
    04:00 -1°C° 0 mm 3 mps 750 mmHg 92%
    05:00 -1°C° 0 mm 3 mps 750 mmHg 91%
    06:00 -1°C° 0 mm 3 mps 750 mmHg 91%
    07:00 -1°C° 0 mm 3 mps 750 mmHg 90%
    08:00 0°C° 0 mm 3 mps 750 mmHg 88%
    09:00 0°C° 0 mm 3 mps 750 mmHg 85%
    10:00 0°C° 0 mm 3 mps 750 mmHg 82%
    11:00 +1°C° 0 mm 3 mps 750 mmHg 82%
    12:00 +1°C° 0 mm 3 mps 750 mmHg 81%
    13:00 +1°C° 0 mm 3 mps 750 mmHg 81%
    14:00 +1°C° 0 mm 3 mps 750 mmHg 82%
    15:00 +1°C° 0 mm 2 mps 750 mmHg 83%
    16:00 +1°C° 0 mm 2 mps 750 mmHg 84%
    17:00 0°C° 0 mm 3 mps 749 mmHg 88%
    18:00 -1°C° 0 mm 3 mps 749 mmHg 92%
    19:00 -2°C° 0 mm 4 mps 748 mmHg 97%
    20:00 -1°C° 0.1 mm 3 mps 748 mmHg 97%
    21:00 -1°C° 0.1 mm 3 mps 748 mmHg 97%
    22:00 -1°C° 0.1 mm 3 mps 748 mmHg 98%
    23:00 -1°C° 0.2 mm 3 mps 747 mmHg 97%

    Tomorrow, 19 November, Tuesday

    Time Temperature Precipitation Wind Pressure Humidity
    00:00 -1°C° 0.2 mm 3 mps 747 mmHg 97%
    01:00 -1°C° 0.2 mm 3 mps 746 mmHg 97%
    02:00 -1°C° 0.8 mm 3 mps 746 mmHg 97%
    03:00 -1°C° 0.8 mm 3 mps 747 mmHg 97%
    04:00 -1°C° 0.8 mm 3 mps 747 mmHg 97%
    05:00 -3°C° 0.2 mm 4 mps 747 mmHg 95%
    06:00 -4°C° 0.2 mm 5 mps 747 mmHg 93%
    07:00 -5°C° 0.2 mm 6 mps 747 mmHg 92%
    08:00 -6°C° 0 mm 6 mps 748 mmHg 89%
    09:00 -9°C° 0 mm 7 mps 749 mmHg 87%
    10:00 -12°C° 0 mm 8 mps 749 mmHg 84%
    11:00 -12°C° 0 mm 7 mps 750 mmHg 83%
    12:00 -13°C° 0 mm 7 mps 750 mmHg 82%
    13:00 -14°C° 0 mm 7 mps 751 mmHg 81%
    14:00 -15°C° 0 mm 7 mps 751 mmHg 80%
    15:00 -17°C° 0 mm 7 mps 752 mmHg 79%
    16:00 -17°C° 0 mm 7 mps 752 mmHg 77%
    17:00 -18°C° 0 mm 7 mps 753 mmHg 76%
    18:00 -19°C° 0 mm 7 mps 753 mmHg 74%
    19:00 -20°C° 0 mm 7 mps 754 mmHg 73%
    20:00 -21°C° 0 mm 7 mps 754 mmHg 73%
    21:00 -21°C° 0 mm 7 mps 755 mmHg 73%
    22:00 -22°C° 0 mm 6 mps 755 mmHg 74%
    23:00 -23°C° 0 mm 6 mps 755 mmHg 75%

    Day after tomorrow, 20 November, Wednesday

    Time Temperature Precipitation Wind Pressure Humidity
    00:00 -23°C° 0 mm 6 mps 756 mmHg 76%
    01:00 -23°C° 0 mm 6 mps 756 mmHg 77%
    02:00 -24°C° 0 mm 6 mps 756 mmHg 78%
    03:00 -24°C° 0 mm 6 mps 757 mmHg 78%
    04:00 -24°C° 0 mm 6 mps 757 mmHg 78%
    05:00 -26°C° 0 mm 6 mps 757 mmHg 78%
    06:00 -26°C° 0 mm 6 mps 758 mmHg 79%
    07:00 -26°C° 0 mm 6 mps 758 mmHg 79%
    08:00 -26°C° 0 mm 6 mps 759 mmHg 78%
    09:00 -26°C° 0 mm 6 mps 759 mmHg 77%
    10:00 -26°C° 0 mm 6 mps 759 mmHg 76%
    11:00 -24°C° 0 mm 6 mps 760 mmHg 75%
    12:00 -23°C° 0 mm 6 mps 760 mmHg 74%
    13:00 -23°C° 0 mm 6 mps 760 mmHg 73%
    14:00 -23°C° 0 mm 6 mps 760 mmHg 74%
    15:00 -23°C° 0 mm 6 mps 760 mmHg 76%
    16:00 -22°C° 0 mm 5 mps 761 mmHg 77%
    17:00 -22°C° 0 mm 5 mps 761 mmHg 78%
    18:00 -22°C° 0 mm 5 mps 761 mmHg 79%
    19:00 -24°C° 0 mm 5 mps 762 mmHg 80%
    20:00 -22°C° 0 mm 5 mps 762 mmHg 81%
    21:00 -22°C° 0 mm 4 mps 762 mmHg 81%
    22:00 -22°C° 0 mm 4 mps 762 mmHg 82%
    23:00 -22°C° 0 mm 4 mps 762 mmHg 82%

    21 November, Thursday

    Time Temperature Precipitation Wind Pressure Humidity
    00:00 -22°C° 0 mm 4 mps 763 mmHg 82%
    01:00 -22°C° 0 mm 4 mps 763 mmHg 82%
    02:00 -22°C° 0 mm 4 mps 763 mmHg 83%
    03:00 -21°C° 0 mm 3 mps 763 mmHg 83%
    04:00 -21°C° 0 mm 3 mps 763 mmHg 83%
    05:00 -21°C° 0 mm 3 mps 763 mmHg 83%
    06:00 -21°C° 0 mm 3 mps 763 mmHg 83%
    07:00 -21°C° 0 mm 3 mps 762 mmHg 82%
    08:00 -18°C° 0 mm 2 mps 763 mmHg 78%
    09:00 -18°C° 0 mm 2 mps 763 mmHg 75%
    10:00 -17°C° 0 mm 2 mps 763 mmHg 71%
    11:00 -16°C° 0 mm 2 mps 762 mmHg 68%
    12:00 -13°C° 0 mm 1 mps 762 mmHg 66%
    13:00 -12°C° 0 mm 1 mps 762 mmHg 63%
    14:00 -12°C° 0 mm 1 mps 761 mmHg 67%
    15:00 -12°C° 0 mm 1 mps 761 mmHg 70%
    16:00 -13°C° 0 mm 1 mps 761 mmHg 74%
    17:00 -13°C° 0 mm 1 mps 760 mmHg 75%
    18:00 -13°C° 0 mm 1 mps 760 mmHg 75%
    19:00 -13°C° 0 mm 1 mps 760 mmHg 76%
    20:00 -13°C° 0 mm 1 mps 760 mmHg 76%
    21:00 -12°C° 0 mm 1 mps 760 mmHg 76%
    22:00 -12°C° 0 mm 1 mps 759 mmHg 76%
    23:00 -12°C° 0 mm 1 mps 759 mmHg 77%

    22 November, Friday

    Time Temperature Precipitation Wind Pressure Humidity
    00:00 -12°C° 0 mm 1 mps 759 mmHg 78%
    01:00 -12°C° 0 mm 1 mps 759 mmHg 79%
    02:00 -12°C° 0 mm 1 mps 759 mmHg 79%
    03:00 -12°C° 0 mm 1 mps 759 mmHg 79%
    04:00 -12°C° 0 mm 1 mps 758 mmHg 80%
    05:00 -11°C° 0 mm 1 mps 758 mmHg 79%
    06:00 -11°C° 0 mm 1 mps 758 mmHg 78%
    07:00 -11°C° 0 mm 1 mps 758 mmHg 77%
    08:00 -11°C° 0 mm 1 mps 758 mmHg 73%
    09:00 -10°C° 0 mm 1 mps 758 mmHg 70%
    10:00 -9°C° 0 mm 1 mps 759 mmHg 66%
    11:00 -8°C° 0 mm 1 mps 759 mmHg 64%
    12:00 -8°C° 0 mm 1 mps 758 mmHg 61%
    13:00 -7°C° 0 mm 1 mps 758 mmHg 59%
    14:00 -7°C° 0 mm 1 mps 758 mmHg 63%
    15:00 -8°C° 0 mm 1 mps 758 mmHg 67%
    16:00 -8°C° 0 mm 1 mps 758 mmHg 71%
    17:00 -10°C° 0 mm 2 mps 758 mmHg 73%
    18:00 -10°C° 0 mm 2 mps 758 mmHg 75%
    19:00 -10°C° 0 mm 2 mps 758 mmHg 76%
    20:00 -12°C° 0 mm 2 mps 758 mmHg 77%
    21:00 -12°C° 0 mm 2 mps 757 mmHg 78%
    22:00 -12°C° 0 mm 2 mps 757 mmHg 78%
    23:00 -12°C° 0 mm 2 mps 757 mmHg 78%

    23 November, Saturday

    Time Temperature Precipitation Wind Pressure Humidity
    00:00 -12°C° 0 mm 2 mps 757 mmHg 78%
    01:00 -12°C° 0 mm 2 mps 757 mmHg 77%
    02:00 -12°C° 0 mm 2 mps 757 mmHg 78%
    03:00 -12°C° 0 mm 2 mps 756 mmHg 78%
    04:00 -12°C° 0 mm 2 mps 756 mmHg 78%
    05:00 -12°C° 0 mm 2 mps 756 mmHg 79%
    06:00 -12°C° 0 mm 2 mps 756 mmHg 79%
    07:00 -12°C° 0 mm 2 mps 755 mmHg 80%
    08:00 -10°C° 0 mm 2 mps 755 mmHg 77%
    09:00 -10°C° 0 mm 2 mps 755 mmHg 75%
    10:00 -9°C° 0 mm 2 mps 755 mmHg 73%
    11:00 -8°C° 0 mm 2 mps 754 mmHg 69%
    12:00 -7°C° 0 mm 2 mps 754 mmHg 66%
    13:00 -6°C° 0 mm 2 mps 754 mmHg 63%
    14:00 -7°C° 0 mm 2 mps 753 mmHg 65%
    15:00 -8°C° 0 mm 2 mps 753 mmHg 68%
    16:00 -8°C° 0 mm 2 mps 753 mmHg 71%
    17:00 -8°C° 0 mm 2 mps 753 mmHg 72%
    18:00 -9°C° 0 mm 2 mps 753 mmHg 74%
    19:00 -9°C° 0 mm 2 mps 753 mmHg 75%
    20:00 -9°C° 0 mm 2 mps 753 mmHg 75%
    21:00 -9°C° 0 mm 2 mps 753 mmHg 74%
    22:00 -10°C° 0 mm 3 mps 753 mmHg 74%
    23:00 -10°C° 0 mm 3 mps 753 mmHg 76%
    Show more